Stations météo

Publicité
Orange, France (7579): Température de l'air & dewpoint: 21.10.2020 18:00:00 - 27.10.2020 18:00:00 (CET)Orange, France (7579): Température de l'air 5cm: 21.10.2020 18:00:00 - 27.10.2020 18:00:00 (CET)Orange, France (7579): Vitesse du vent & gusts: 21.10.2020 18:00:00 - 27.10.2020 18:00:00 (CET)Orange, France (7579): Direction du vent: 21.10.2020 18:00:00 - 27.10.2020 18:00:00 (CET)Orange, France (7579): reduced air pressure: 21.10.2020 18:00:00 - 27.10.2020 18:00:00 (CET)Orange, France (7579): visibility: 21.10.2020 18:00:00 - 27.10.2020 18:00:00 (CET)Orange, France (7579): Quantités de précipitations: 21.10.2020 18:00:00 - 27.10.2020 18:00:00 (CET)
Date & Time tt [°C] td [°C] tt 5cm [°C] ff [km/h] ff [knt] fx [km/h] fx [knt] dd ppp [hPa] vv [km] rr [mm]
27.10.2020 18:00:00 11,8 6,7 7,7 5 3 8 4 SE 1014,7 60 0,0
27.10.2020 17:00:00 15,2 7,0 15,0 7 4 14 8 NNW 1014,1 60 0,0
27.10.2020 16:00:00 16,6 6,7 17,3 7 4 20 11 N 1013,7 53 0,0
27.10.2020 15:00:00 16,4 7,1 18,0 11 6 22 12 WNW 1013,7 50 0,0
27.10.2020 14:00:00 16,4 5,9 21,9 15 8 32 17 NW 1013,9 48 0,0
27.10.2020 13:00:00 15,8 6,0 17,5 19 10 36 20 NW 1014,6 46 0,0
27.10.2020 12:00:00 15,2 6,7 18,2 15 8 31 17 NW 1014,9 58 0,0
27.10.2020 11:00:00 14,5 7,1 15,4 16 9 25 14 NNW 1015,2 38 0,0
27.10.2020 10:00:00 11,6 7,1 13,0 9 5 16 9 WNW 1015,2 53 0,0
27.10.2020 09:00:00 9,3 7,1 5,4 5 3 11 6 NW 1014,9 39 0,0
27.10.2020 08:00:00 6,1 4,9 2,5 5 3 11 6 WNW 1014,4 49 0,0
27.10.2020 07:00:00 4,6 3,6 2,8 8 4 11 6 NW 1013,7 57 0,0
27.10.2020 06:00:00 4,6 3,6 1,4 7 4 11 6 NW 1013,6 59 0,0
27.10.2020 05:00:00 4,7 3,5 1,9 7 4 11 6 NNW 1013,0 60 0,0
27.10.2020 04:00:00 5,7 4,5 2,6 6 3 11 6 WNW 1012,8 60 0,0
27.10.2020 03:00:00 6,0 4,3 3,8 6 3 14 8 NW 1012,9 60 0,0
27.10.2020 02:00:00 7,1 5,4 3,4 6 3 11 6 NW 1012,9 60 0,0
27.10.2020 01:00:00 7,8 5,4 3,4 5 3 13 7 NNW 1012,9 60 0,0
27.10.2020 00:00:00 8,8 6,2 5,9 10 5 15 8 NW 1012,9 60 0,0
26.10.2020 23:00:00 8,7 6,7 6,6 10 5 16 9 WNW 1012,8 60 0,0
26.10.2020 22:00:00 9,6 6,7 7,4 9 5 19 11 WNW 1012,2 60 0,0
26.10.2020 21:00:00 10,0 6,7 7,1 13 7 17 9 NW 1011,5 60 0,0
26.10.2020 20:00:00 10,6 6,7 8,4 11 6 24 13 NNW 1011,0 60 0,0
26.10.2020 19:00:00 12,0 6,9 9,4 18 10 28 15 NW 1010,4 60 0,0
26.10.2020 18:00:00 12,2 6,2 9,4 10 6 29 15 WNW 1009,1 60 0,0
26.10.2020 17:00:00 14,4 6,2 14,4 19 11 36 19 NNW 1008,4 45 0,0
26.10.2020 16:00:00 15,5 6,5 15,7 23 12 40 22 N 1008,1 32 0,0
26.10.2020 15:00:00 15,7 7,2 20,8 24 13 42 23 N 1008,1 26 0,0
26.10.2020 14:00:00 15,5 7,3 20,3 24 13 42 23 N 1008,3 29 0,0
26.10.2020 13:00:00 14,8 8,1 19,9 24 13 44 24 NNW 1008,6 32 0,0
26.10.2020 12:00:00 14,0 7,7 10,8 27 15 45 25 NNW 1009,2 37 0,0
26.10.2020 11:00:00 11,3 7,4 9,9 27 14 42 23 NNW 1009,0 46 0,0
26.10.2020 10:00:00 10,4 7,6 9,3 27 15 40 21 NNW 1009,0 58 0,0
26.10.2020 09:00:00 10,1 7,7 9,2 25 14 42 23 NNW 1008,7 22 0,0
26.10.2020 08:00:00 10,5 7,9 9,4 24 13 34 18 NNW 1007,7 44 0,2
26.10.2020 07:00:00 11,0 9,1 10,1 17 9 27 14 NW 1007,5 60 0,0
26.10.2020 06:00:00 11,6 9,5 10,6 15 8 22 12 NW 1007,3 59 0,2
26.10.2020 05:00:00 12,0 10,2 11,1 6 3 29 15 E 1007,1 60 1,0
26.10.2020 04:00:00 14,8 11,4 13,0 16 9 41 22 WNW 1006,6 17 0,0
26.10.2020 03:00:00 16,4 14,4 15,0 14 8 41 22 SSW 1005,4 18 0,6
26.10.2020 02:00:00 17,6 12,5 16,7 22 12 42 23 SSE 1005,3 40 0,0
26.10.2020 01:00:00 17,8 11,8 16,6 34 18 53 29 SE 1005,7 51 0,0
26.10.2020 00:00:00 17,4 11,9 15,8 24 13 43 23 SE 1006,2 52 0,0
25.10.2020 23:00:00 17,3 12,0 16,1 28 15 44 24 SE 1007,0 44 0,0
25.10.2020 22:00:00 17,8 11,6 16,5 20 11 45 25 SSE 1007,4 48 0,0
25.10.2020 21:00:00 17,5 11,1 16,4 29 16 45 24 SE 1007,3 50 0,0
25.10.2020 20:00:00 17,6 10,9 15,6 24 13 41 22 SE 1008,4 49 0,0
25.10.2020 19:00:00 16,9 12,0 14,2 15 8 25 13 SSE 1008,7 38 0,0
25.10.2020 18:00:00 16,8 13,3 15,4 7 4 16 9 S 1009,0 30 0,0
25.10.2020 17:00:00 18,1 13,4 17,4 10 6 28 15 S 1009,0 17 0,0
25.10.2020 16:00:00 19,1 13,7 18,4 15 8 24 13 S 1009,3 21 0,0
25.10.2020 15:00:00 19,3 13,2 18,6 10 5 22 12 S 1009,8 48 0,0
25.10.2020 14:00:00 19,1 13,5 18,9 13 7 34 18 SSE 1010,2 49 0,0
25.10.2020 13:00:00 18,9 12,9 18,6 16 9 36 20 SSE 1011,4 57 0,0
25.10.2020 12:00:00 18,3 13,2 14,1 14 7 28 15 SSE 1012,2 37 0,0
25.10.2020 11:00:00 12,4 11,0 12,8 8 4 14 8 WNW 1013,2 14 0,0
25.10.2020 10:00:00 10,7 9,8 10,8 6 3 8 5 WNW 1013,1 20 0,0
25.10.2020 09:00:00 9,1 8,6 7,8 3 2 6 4 NNW 1014,0 39 0,0
25.10.2020 08:00:00 7,1 6,8 3,9 0 0 8 4 N 1014,1 11 0,0
25.10.2020 07:00:00 6,0 5,6 3,6 0 0 9 5 N 1014,5 0,3 0,0
25.10.2020 06:00:00 6,2 5,8 3,5 3 2 5 3 SW 1014,7 0,3 0,0
25.10.2020 05:00:00 6,0 5,3 3,6 2 1 7 4 NW 1015,0 13 0,0
25.10.2020 04:00:00 6,5 5,8 4,3 5 3 6 3 N 1015,4 18 0,0
25.10.2020 03:00:00 7,1 6,4 4,7 4 2 6 3 NW 1016,3 18 0,0
25.10.2020 02:00:00 7,7 6,8 5,2 0 0 3 2 N 1016,8 22 0,0
25.10.2020 01:00:00 - - - - - - - - - - -
25.10.2020 00:00:00 7,9 7,0 5,9 5 3 7 4 ESE 1017,5 42 0,0
24.10.2020 23:00:00 8,4 7,3 6,0 3 2 11 6 ESE 1017,8 41 0,0
24.10.2020 22:00:00 8,9 8,0 6,5 8 4 11 6 E 1017,8 35 0,0
24.10.2020 21:00:00 9,8 8,6 6,9 3 1 10 5 SE 1017,8 41 0,0
24.10.2020 20:00:00 10,4 8,5 7,5 0 0 6 3 N 1018,0 31 0,0
24.10.2020 19:00:00 12,0 9,7 8,2 2 1 5 3 NNW 1017,9 25 0,0
24.10.2020 18:00:00 14,9 10,3 10,1 5 3 10 5 NW 1018,0 58 0,0
24.10.2020 17:00:00 17,6 11,2 16,4 5 3 20 11 NNW 1017,7 60 0,0
24.10.2020 16:00:00 18,9 10,2 19,4 14 8 32 17 NNW 1017,6 48 0,0
24.10.2020 15:00:00 19,1 9,6 21,6 21 11 40 22 NW 1018,0 45 0,0
24.10.2020 14:00:00 19,7 10,7 23,3 23 12 42 23 N 1018,3 32 0,0
24.10.2020 13:00:00 19,0 11,6 22,6 26 14 44 24 NNW 1018,9 32 0,0
24.10.2020 12:00:00 18,5 11,8 21,2 25 14 44 24 NNW 1019,6 35 0,0
24.10.2020 11:00:00 17,2 11,7 19,9 20 11 33 18 NW 1020,0 37 0,0
24.10.2020 10:00:00 15,9 12,1 16,4 15 8 23 13 NW 1020,3 25 0,0
24.10.2020 09:00:00 13,2 12,3 10,2 9 5 15 8 WNW 1020,5 16 0,0
24.10.2020 08:00:00 10,4 9,9 6,1 4 2 7 4 WNW 1020,2 11 0,0
24.10.2020 07:00:00 8,8 8,3 6,1 4 2 7 4 NNW 1019,9 1,6 0,0
24.10.2020 06:00:00 10,3 9,8 7,3 5 3 14 7 NW 1019,8 9 0,2
24.10.2020 05:00:00 10,0 9,5 6,6 6 4 10 5 WNW 1019,8 0,4 0,0
24.10.2020 04:00:00 10,2 9,7 7,8 4 2 7 4 NW 1019,9 0,2 0,0
24.10.2020 03:00:00 11,5 11,0 8,6 5 3 8 4 WNW 1020,2 12 0,0
24.10.2020 02:00:00 11,7 11,2 10,3 6 3 7 4 NW 1020,3 10 0,0
24.10.2020 01:00:00 11,7 11,2 9,0 4 2 6 3 WNW 1020,1 4,2 0,0
24.10.2020 00:00:00 11,9 11,3 10,2 4 2 10 5 N 1020,0 0,7 0,0
23.10.2020 23:00:00 12,5 11,9 10,8 3 2 10 6 NNW 1020,0 0,1 0,0
23.10.2020 22:00:00 12,8 12,2 11,8 4 2 9 5 WNW 1019,4 0,4 0,0
23.10.2020 21:00:00 12,6 12,0 9,6 4 2 10 6 WSW 1019,0 17 0,0
23.10.2020 20:00:00 12,9 12,0 11,5 4 2 11 6 WSW 1018,5 41 0,0
23.10.2020 19:00:00 13,5 12,2 12,2 11 6 19 10 NNE 1018,6 52 0,0
23.10.2020 18:00:00 13,3 11,9 12,5 13 7 41 22 SE 1017,7 20 17,8
23.10.2020 17:00:00 18,5 15,2 17,1 16 9 35 19 SSE 1016,0 19 0,0
23.10.2020 16:00:00 19,0 15,3 17,7 20 11 31 17 SE 1016,0 19 0,0
23.10.2020 15:00:00 19,4 15,5 18,6 18 10 36 19 SSE 1015,7 39 0,0
23.10.2020 14:00:00 19,1 15,8 16,3 16 8 27 14 SE 1015,9 32 1,4
23.10.2020 13:00:00 17,8 15,2 16,7 20 11 29 16 SE 1016,4 19 0,4
23.10.2020 12:00:00 19,3 15,8 18,4 21 11 34 18 SE 1016,7 48 0,0
23.10.2020 11:00:00 18,6 15,1 18,8 20 11 32 17 SE 1016,9 44 0,0
23.10.2020 10:00:00 17,9 15,7 16,1 17 9 29 15 SE 1016,8 30 0,0
23.10.2020 09:00:00 17,1 15,1 15,4 12 6 26 14 SE 1016,6 33 0,0
23.10.2020 08:00:00 16,6 14,6 15,2 16 9 28 15 SSE 1015,9 18 1,4
23.10.2020 07:00:00 16,8 14,1 15,1 16 9 36 19 S 1015,4 19 2,4
23.10.2020 06:00:00 17,0 13,9 15,2 26 14 51 27 SE 1015,4 12 0,0
23.10.2020 05:00:00 18,2 13,3 15,1 24 13 53 29 SE 1015,2 39 0,0
23.10.2020 04:00:00 17,8 13,5 15,0 24 13 45 24 SE 1015,3 17 0,4
23.10.2020 03:00:00 19,0 12,5 16,5 28 15 55 30 SE 1016,0 24 0,0
23.10.2020 02:00:00 20,4 11,3 18,8 34 19 52 28 SE 1016,2 52 0,0
23.10.2020 01:00:00 20,1 11,8 18,2 23 12 39 21 SE 1016,5 45 0,0
23.10.2020 00:00:00 19,7 12,0 17,9 22 12 46 25 SE 1016,8 51 0,0
22.10.2020 23:00:00 19,2 12,9 14,6 29 16 42 23 ESE 1017,0 42 0,0
22.10.2020 22:00:00 16,4 13,5 14,2 8 4 13 7 SSE 1018,5 25 0,0
22.10.2020 21:00:00 15,8 13,6 14,3 3 1 9 5 ESE 1018,3 11 0,0
22.10.2020 20:00:00 16,4 13,3 14,2 4 2 7 4 W 1018,6 19 0,0
22.10.2020 19:00:00 17,0 13,1 14,3 4 2 8 4 N 1017,9 23 0,0
22.10.2020 18:00:00 17,6 13,5 15,5 4 2 11 6 N 1017,8 19 0,0
22.10.2020 17:00:00 18,7 13,5 17,6 7 4 10 5 NW 1017,7 20 0,0
22.10.2020 16:00:00 19,7 13,4 18,9 2 1 9 5 W 1018,2 18 0,0
22.10.2020 15:00:00 19,9 12,9 19,0 6 3 17 9 S 1018,3 42 0,0
22.10.2020 14:00:00 19,7 13,2 19,1 13 7 27 15 SE 1018,6 48 0,0
22.10.2020 13:00:00 19,7 12,9 19,1 14 7 34 18 SSE 1019,1 27 0,0
22.10.2020 12:00:00 19,7 13,4 18,8 20 11 39 21 SE 1019,8 41 0,0
22.10.2020 11:00:00 19,8 12,8 18,5 23 12 42 23 SE 1020,0 50 0,0
22.10.2020 10:00:00 19,4 12,4 18,5 31 17 43 23 SE 1019,6 48 0,0
22.10.2020 09:00:00 19,3 11,8 17,7 24 13 47 25 SE 1019,6 47 0,0
22.10.2020 08:00:00 19,2 11,5 17,2 21 11 41 22 SE 1019,0 45 0,0
22.10.2020 07:00:00 18,8 11,4 16,6 12 6 21 11 SE 1018,3 49 0,0
22.10.2020 06:00:00 19,2 10,5 18,2 9 5 24 13 SSE 1018,2 58 0,0
22.10.2020 05:00:00 19,6 10,3 18,3 18 10 40 22 SE 1017,8 56 0,0
22.10.2020 04:00:00 19,3 10,3 18,3 22 12 37 20 SE 1017,6 58 0,0
22.10.2020 03:00:00 19,9 10,0 17,5 25 13 41 22 SE 1017,9 60 0,0
22.10.2020 02:00:00 18,7 10,0 13,8 10 5 22 12 S 1018,4 59 0,0
22.10.2020 01:00:00 16,2 10,1 12,2 6 4 14 7 SW 1018,2 60 0,0
22.10.2020 00:00:00 17,9 10,0 13,3 6 3 16 8 S 1017,9 60 0,0
21.10.2020 23:00:00 17,6 10,0 15,2 6 3 26 14 S 1017,7 60 0,0
21.10.2020 22:00:00 18,6 10,2 17,0 18 10 34 19 SSE 1017,4 60 0,0
21.10.2020 21:00:00 18,6 10,7 16,6 19 10 36 19 SSE 1017,3 59 0,0
21.10.2020 20:00:00 18,2 10,6 16,6 18 10 38 21 SSE 1017,3 58 0,0
21.10.2020 19:00:00 19,5 10,5 17,9 24 13 41 22 SSE 1016,9 60 0,0
21.10.2020 18:00:00 19,8 10,5 18,6 19 11 41 22 SSE 1016,1 57 0,0

tt = Température de l'air
td = dewpoint
tt 5cm = Température de l'air 5cm
ff = Vitesse du vent
fx = gusts
dd = Direction du vent
ppp = reduced air pressure
vv = visibility
rr = Quantités de précipitations

stations d'obs. à proximité